Location: Newark
(45.5167°N, 11.1667°E)
Time: 16:20:26
(UTC+00:00)

ISS - Pass Details

Date: 21 November 2019
Orbit: 411 x 421 km, 51.6° (Epoch: 08 December)

Event Time Altitude Azimuth Distance (km) Brightness Sun altitude
Rises 18:12:32 0° 228° (SW) 2,348 0.8 -26.4°
Reaches altitude 10° 18:14:38 10° 223° (SW) 1,490 -0.4 -26.8°
Enters shadow 18:15:20 15° 220° (SW) 1,213 -1.0 -26.9°
